Torna al catalogo

STARLINK-3208

AttivoComunicazioniVLEO
NORAD 49769·PAYLOAD·🇺🇸 United States

Lanciato Dec 2, 2021 da Cape Canaveral Space Force Station

Loading…

Prossimi Passaggi (prossime 24 ore)

TLE

AggiornatoSource: CelesTrak SupGP

Epoca: Sep 15, 2026, 00:56 UTC

1 49769C 21115AX  26258.03937500  .00002087  00000+0  67112-4 0  2580
2 49769  53.1609 359.2193 0001025  89.4243 351.4919 15.31695204    10

Traccia STARLINK-3208 in tempo reale con AllMySat

Download on the App Store